Location: Newark
(7.1028°S, 35.3258°W)
Time: 06:33:54
(UTC+00:00)

Vanguard 3 - Pass Details

Date: 26 February 2020
Orbit: 508 x 3263 km, 33.4° (Epoch: 07 April)

Event Time Altitude Azimuth Distance (km) Brightness Sun altitude
Rises 20:13:25 0° 293° (WNW) 6,213 12.8 6.2°
Reaches altitude 10° 20:17:09 10° 290° (WNW) 5,479 12.7 5.3°
Maximum altitude 20:34:57 62° 212° (SSW) 3,519 10.7 0.9°
Drops below altitude 10° 20:54:00 10° 134° (SE) 5,768 11.1 -3.8°
Sets 20:58:07 0° 130° (SE) 6,537 11.4 -4.8°
